Location: Unspecified
(0.0000°N, 0.0000°E)
Time: 14:30:12
(UTC+00:00)

A-11 Canister half - Pass Details

Date: 28 May 2026
Orbit: 1524 x 1684 km, 47.3° (Epoch: 7 June)

Event Time Altitude Azimuth Distance (km) Brightness Sun altitude
Rises 12:48:26 0° 268° (W) 4,672 11.7 65.1°
Reaches altitude 10° 12:54:59 10° 301° (WNW) 3,679 11.5 64.3°
Maximum altitude 12:57:14 11° 316° (NW) 3,600 11.5 64.0°
Drops below altitude 10° 12:59:29 10° 330° (NNW) 3,681 11.6 63.7°
Sets 13:06:07 0° 4° (N) 4,681 11.8 62.7°
